Regional Weather Roundup
Issued by NWS

Home | Current Version | Previous Version | Graphics & Text | Print | Product List | Glossary On
Versions: 1 2 3 4 5 6 7 8 9 10 11 12 13 14 15 16 17 18 19 20 21 22 23 24 25 26 27 28 29 30 31 32 33 34 35 36 37 38 39 40 41 42 43 44 45 46 47 48 49 50
000
ASUS43 KLOT 272012
RWRIL

ILLINOIS REGIONAL WEATHER ROUNDUP
NATIONAL WEATHER SERVICE CHICAGO/ROMEOVILLE IL
300 PM CDT WED MAY 27 2015

NOTE: "FAIR" INDICATES FEW OR NO CLOUDS BELOW 12,000 FEET WITH NO
SIGNIFICANT WEATHER AND/OR OBSTRUCTIONS TO VISIBILITY.

* THESE STATIONS ARE NOT UNDER NWS QUALITY CONTROL. THEY ALSO MAY NOT
  REPORT WEATHER SUCH AS PRECIPITATION OR FOG.

ILZ001-002-007-009-015-016-024-272100-
NORTHWEST ILLINOIS

CITY           SKY/WX    TMP DP  RH WIND       PRES   REMARKS
MOLINE         SUNNY     79  56  45 NW10      30.03R HX  80
STERLING*      SUNNY     77  59  53 N12G18    30.04R
SAVANNA*       SUNNY     76  55  47 NW10      30.04R
$$

ILZ003-004-008-010-011-017-018-272100-
NORTH CENTRAL ILLINOIS

CITY           SKY/WX    TMP DP  RH WIND       PRES   REMARKS
ROCKFORD       MOSUNNY   75  56  51 NW13      30.04R
FREEPORT*      MOSUNNY   71  55  56 N10G18    30.04S
ROCHELLE*      PTSUNNY   73  58  58 NW14      30.04R
DE KALB*       PTSUNNY   70  58  66 NW14G21   30.04R
PERU*          PTSUNNY   76  56  51 NW15G23   30.04R
$$

ILZ005-006-012>014-019>023-272100-
NORTHEAST ILLINOIS

CITY           SKY/WX    TMP DP  RH WIND       PRES   REMARKS
CHICAGO-OHARE  CLOUDY    70  57  63 NW15      30.01R
CHICAGO-MIDWAY PTSUNNY   74  57  55 W13G28    30.00R
AURORA         PTSUNNY   74  57  55 NW18G26   30.02R
LANSING*       MOSUNNY   76  54  46 W21G28    30.00S
JOLIET*        PTSUNNY   77  58  51 NW9G22    30.01S
WAUKEGAN       CLOUDY    70  59  68 W8        29.99R
DUPAGE AIRPORT LGT RAIN  68  58  70 NW18G28   30.02R
KANKAKEE*      MOSUNNY   78  61  56 W15G23    30.02S
WHEELING       CLOUDY    65  58  78 W5        30.03R
MORRIS*        MOSUNNY   76  59  55 W17       30.00S
ROMEOVILLE*    CLOUDY    74  58  56 NW17      30.01S
NORTHERLY ISL    N/A     73  53  49 W16         N/A
$$

LMZ740>746-272100-
SOUTHERN LAKE MICHIGAN

STATION/POSITION SKY/WX   TEMP    WIND        PRES    VSBY  WAVE
                          AIR SEA DIR/SP/G                  HT/PER
                          (F)     (DEG/KT/KT) (MB)    (MI)  (FT/S)
SOUTHERN BUOY              45 38  200/  8/ 10 1016.3R         1
HARRISON CRIB              69     250/ 11/ 16   N/A
BURNHAM HARBOR             73     300/  9/ 16   N/A
CALUMET HARBOR             75     240/  7/ 13   N/A
BURNS HARBOR               60     290/ 12/ 16 1016.3
MICHIGAN CITY              61     270/ 16/ 19   N/A
MICHIGAN CITY 6N           58 52  310/  8/ 12   N/A           1/ 3
ST. JOSEPH                 57 56  200/  4/  4   N/A           1/ 3
$$

ILZ025>027-034>036-040-047-049-050-058-095>099-272100-
WEST-CENTRAL ILLINOIS

CITY           SKY/WX    TMP DP  RH WIND       PRES   REMARKS
QUINCY         SUNNY     77  57  50 NW8       30.07S
GALESBURG*     MOSUNNY   76  56  51 N9        30.06R
MACOMB*        MOSUNNY   75  60  58 NW7       30.08S
JACKSONVILLE*  MOSUNNY   77  60  55 NW13      30.07S
PITTSFIELD*    MOSUNNY   78  60  53 NW9G18    30.09R
$$

ILZ028>032-037-038-041>044-048-051>054-059>061-272100-
CENTRAL ILLINOIS

CITY           SKY/WX    TMP DP  RH WIND       PRES   REMARKS
PONTIAC        PTSUNNY   78  60  52 W17G23    30.03S HX  80
BLOOMINGTON    MOSUNNY   78  61  55 W10G20    30.05S
DECATUR        MOSUNNY   79  59  50 W16       30.05R HX  80
PEORIA         PTSUNNY   79  59  50 VRB5      30.05R HX  80
LACON*         MOSUNNY   76  58  52 NW8       30.03S
LINCOLN*       MOSUNNY   78  58  50 NW6       30.02S
SPRINGFIELD    MOSUNNY   80  57  45 W15       30.05S HX  80
TAYLORVILLE    PTSUNNY   77  59  53 W10       30.06R
$$

ILZ033-039-045-046-055>057-062-063-272100-
EAST-CENTRAL ILLINOIS

CITY           SKY/WX    TMP DP  RH WIND       PRES   REMARKS
CHAMPAIGN      FAIR      81  61  50 W17       30.05R HX  82
DANVILLE*      MOSUNNY   79  63  58 W15G24    30.00S HX  81
RANTOUL*       PTSUNNY   80  61  53 W15G21    30.04R HX  81
PARIS*         MOSUNNY   83  61  46 SW15G22   30.05S HX  83
$$

ILZ079-100>102-272100-
SOUTHWEST ILLINOIS

CITY           SKY/WX    TMP DP  RH WIND       PRES   REMARKS
ALTON          MOSUNNY   81  63  54 W15       30.07R HX  82
BELLEVILLE     MOSUNNY   81  66  60 W7        30.05R HX  83
CAHOKIA*       MOSUNNY   83  62  49 W9        30.06R HX  84
SPARTA*        MOSUNNY   79  64  60 S10       30.09S HX  80
$$

ILZ064>066-069>071-074>076-080>082-084>086-088>090-092>094-272100-
SOUTH-CENTRAL ILLINOIS

CITY           SKY/WX    TMP DP  RH WIND       PRES   REMARKS
CARBONDALE     PTSUNNY   82  65  56 SW12G18   30.09S HX  84
CAIRO*         CLOUDY    76  67  72 S12       30.12S
EFFINGHAM*     MOSUNNY   82  53  36 SW12G23   30.07S HX  81
MARION         PTSUNNY   81  68  65 MISG      30.11R HX  83
MT. VERNON     PTSUNNY   81  64  57 SW14      30.09S HX  82
CENTRALIA*     MOSUNNY   83  60  45 SW10      30.08S HX  83
SALEM*         MOSUNNY   82  62  50 S9        30.08S HX  83
METROPOLIS*    CLOUDY    75  65  70 S9        30.11F
$$

ILZ067-068-072-073-078-083-087-091-272100-
SOUTHEAST ILLINOIS

CITY           SKY/WX    TMP DP  RH WIND       PRES   REMARKS
LAWRENCEVILLE  CLOUDY    82  58  43 SW14      30.07F HX  82
FLORA*         CLOUDY    79  60  50 SW10      30.08S HX  80
FAIRFIELD*     PTSUNNY   81  61  49 SW9       30.07S HX  82
HARRISBURG*    CLOUDY    79  63  57 SW15G22   30.11S HX  81
ROBINSON*      PTSUNNY   82  56  42 SW6G16    30.07F HX  81
CARMI*         CLOUDY    82  61  47 SW9       30.08F HX  83
$$

ABBREVIATIONS USED IN REMARKS
   TC - TEMPERATURE IN CELSIUS
  WCI - WIND CHILL INDEX
   HX - HEAT INDEX
  VSB - VISIBILITY
$$




USA.gov is the U.S. government's official web portal to all federal, state and local government web resources and services.